User: anonymous   Login
Location: Unspecified
(0.0000°N, 0.0000°E)
Time: 02:45:27
(UTC+00:00)
Language:

AMOS 1 - Orbit

View from above orbital plane
View from above orbital plane
View from above satellite
View from above satellite

Ground track
Ground track

The orbit data is extracted from the following two-line orbital elements,

1 23865U 96030B   17113.40756795 -.00000063 +00000-0 +00000-0 0  9998
2 23865 006.9747 054.4852 0006451 123.8203 053.6428 00.97117010076122
Epoch (UTC): 23 April 2017 09:46:53
Eccentricity: 0.0006451
inclination: 6.9747°
perigee height: 36666 km
apogee height: 36722 km
right ascension of ascending node: 54.4852°
argument of perigee: 123.8203°
revolutions per day: 0.97117010
mean anomaly at epoch: 53.6428°
orbit number at epoch: 7612

The dashed part of the orbit path shows where the satellite is in the earth's shadow,  

DLR